Flag for Switzerland Weather past 2 weeks in Schaffhausen, Schaffhausen, Switzerland

Now
60 °F

Cool.


Feels Like: 60 °F
Forecast: 54 / 93 °F
Wind: 3 mph from Northwest

Location: Zurich-Kloten

Current Time: Aug 5, 2015 at 7:04:34 AM

Latest Report: Aug 5, 2015 at 4:00 AM


Visibility: N/A

Pressure: 30.09 "Hg

Humidity: 94%

Dew point: 58 °F

Location of SchaffhausenLocation

Historic Weather in Schaffhausen — Graph

°F

Schaffhausen temperature yesterday

Maximum temperature yesterday: 77 °F (at 11:00 AM)
Minimum temperature yesterday: 58 °F (at 6:00 AM)
Average temperature yesterday: 68 °F

Past Weeks' High & Low Weather Summary

 TemperatureHumidityPressure
High95 °F (Jul 22, 3:00 PM)99% (Jul 30, 7:00 AM)30.12 "Hg (Jul 30, 7:00 AM)
Low50 °F (Jul 30, 5:00 AM)27% (Aug 3, 4:00 PM)29.65 "Hg (Jul 24, 7:00 PM)
Average68 °F65%29.94 "Hg
* Reported Jul 21 4:00 AM — Aug 5 4:00 AM, Schaffhausen, Weather by CustomWeather, © 2015

Note: Actual official high and low records may vary slightly from our data, if they occured in-between our weather recording intervals... More about our weather records

Advertising

Schaffhausen weather history for previous 24 hours

 ConditionsComfort  
Time TempWeatherWind HumidityBarometerVisibility
4:00 AM
Wed, Aug 5
60 °FCool.3 mph94%30.09 "HgN/A
3:00 AM60 °FCool.7 mph93%30.10 "HgN/A
2:00 AM63 °FPassing clouds.2 mph88%30.10 "Hg19 mi
1:00 AM66 °FMild.2 mph84%30.10 "HgN/A
12:00 AM69 °FMild.2 mph75%30.10 "HgN/A
10:00 PM
Tue, Aug 4
69 °FMild.3 mph76%30.08 "HgN/A
9:00 PM71 °FMild.6 mph71%30.06 "HgN/A
8:00 PM73 °FScattered clouds.7 mph63%30.03 "Hg37 mi
7:00 PM75 °FMild.7 mph58%30.02 "HgN/A
6:00 PM76 °FMild.6 mph52%30.01 "HgN/A
5:00 PM73 °FPartly sunny.2 mph60%30.02 "Hg22 mi
4:00 PM71 °FMild.8 mph70%30.04 "HgN/A
3:00 PM70 °FMild.9 mph67%30.04 "HgN/A
2:00 PM72 °FOvercast.12 mph59%30.05 "Hg22 mi
1:00 PM74 °FMild.14 mph57%30.03 "HgN/A
12:00 PM76 °FMild.14 mph53%30.01 "HgN/A
11:00 AM77 °FOvercast.10 mph54%29.98 "Hg19 mi
10:00 AM74 °FMild.8 mph62%29.96 "HgN/A
9:00 AM69 °FMild.2 mph75%29.95 "HgN/A
8:00 AM65 °FOvercast.2 mph84%29.96 "Hg19 mi
7:00 AM58 °FCool.2 mph92%29.98 "HgN/A
Weather by CustomWeather, © 2015

See weather overviewHow to use our weather pages